BTK6886 WIII-WAOO

Flight info

Callsign BTK6886
Flight time 1h 25m
Altitude 33000
Route AKSOX DCT SPIKO DCT SUMDI DCT LAVOV DCT DUNIA
Aircraft A320/M-SDE3FGHIRWY/LB1

Departure

Time 2026-05-08 07:31
Airport Soekarno-Hatta International Airport (WIII)

Arrival

Time 2026-05-08 08:56
Airport Syamsudin Noor International Airport (WAOO)
Time Latitude Longitude Altitude Speed Heading
2026-05-08 07:05 -6.12070 106.65651 38 ft 0 kts 247°
2026-05-08 07:20 -6.12062 106.65670 65 ft 4 kts 250°
2026-05-08 07:20 -6.12054 106.65694 35 ft 4 kts 257°
2026-05-08 07:21 -6.12051 106.65718 35 ft 4 kts 276°
2026-05-08 07:21 -6.12059 106.65738 34 ft 3 kts 334°
2026-05-08 07:21 -6.12063 106.65741 35 ft 1 kts 337°
2026-05-08 07:21 -6.12065 106.65741 35 ft 0 kts 337°
2026-05-08 07:24 -6.12057 106.65738 38 ft 4 kts 337°
2026-05-08 07:24 -6.12006 106.65717 38 ft 11 kts 339°
2026-05-08 07:24 -6.11928 106.65687 38 ft 13 kts 338°
2026-05-08 07:24 -6.11841 106.65651 38 ft 14 kts 338°
2026-05-08 07:25 -6.11746 106.65612 38 ft 15 kts 340°
2026-05-08 07:25 -6.11667 106.65583 38 ft 10 kts 338°
2026-05-08 07:25 -6.11583 106.65667 38 ft 15 kts 70°
2026-05-08 07:26 -6.11534 106.65793 37 ft 22 kts 68°
2026-05-08 07:26 -6.11476 106.65936 38 ft 23 kts 68°
2026-05-08 07:26 -6.11417 106.66087 37 ft 24 kts 68°
2026-05-08 07:26 -6.11354 106.66245 39 ft 25 kts 69°
2026-05-08 07:27 -6.11289 106.66405 39 ft 24 kts 68°
2026-05-08 07:27 -6.11226 106.66563 38 ft 25 kts 69°
2026-05-08 07:27 -6.11168 106.66709 38 ft 22 kts 69°
2026-05-08 07:27 -6.11112 106.66851 38 ft 20 kts 68°
2026-05-08 07:28 -6.11080 106.66930 38 ft 7 kts 68°
2026-05-08 07:28 -6.11059 106.66965 38 ft 4 kts 28°
2026-05-08 07:28 -6.11042 106.66971 38 ft 0 kts 12°
2026-05-08 07:29 -6.11011 106.66976 39 ft 6 kts
2026-05-08 07:29 -6.10968 106.66959 39 ft 7 kts 323°
2026-05-08 07:29 -6.10938 106.66905 39 ft 13 kts 279°
2026-05-08 07:29 -6.10922 106.66806 38 ft 15 kts 270°
2026-05-08 07:30 -6.10967 106.66734 39 ft 11 kts 256°
2026-05-08 07:30 -6.10994 106.66653 39 ft 20 kts 249°
2026-05-08 07:30 -6.11132 106.66303 41 ft 89 kts 249°
2026-05-08 07:30 -6.11443 106.65527 38 ft 146 kts 250°
2026-05-08 07:31 -6.11875 106.64457 192 ft 176 kts 253°
2026-05-08 07:31 -6.12295 106.63278 650 ft 188 kts 257°
2026-05-08 07:31 -6.12616 106.61977 1266 ft 192 kts 260°
2026-05-08 07:31 -6.12622 106.60658 2015 ft 193 kts 284°
2026-05-08 07:32 -6.12205 106.59308 2405 ft 214 kts 291°
2026-05-08 07:32 -6.11621 106.57827 2770 ft 238 kts 292°
2026-05-08 07:32 -6.10960 106.56204 3113 ft 261 kts 292°
2026-05-08 07:32 -6.10270 106.54477 3741 ft 270 kts 291°
2026-05-08 07:33 -6.09537 106.52718 4492 ft 276 kts 299°
2026-05-08 07:33 -6.08288 106.51258 4879 ft 282 kts 326°
2026-05-08 07:33 -6.06492 106.50516 5162 ft 281 kts 353°
2026-05-08 07:33 -6.04548 106.50665 5790 ft 283 kts 19°
2026-05-08 07:34 -6.02791 106.51533 6560 ft 282 kts 38°
2026-05-08 07:34 -6.01393 106.52914 7279 ft 283 kts 56°
2026-05-08 07:34 -6.00487 106.54662 7985 ft 284 kts 73°
2026-05-08 07:34 -6.00111 106.56626 8682 ft 288 kts 84°
2026-05-08 07:35 -5.99847 106.58635 8946 ft 290 kts 83°
2026-05-08 07:35 -5.99574 106.60642 9004 ft 290 kts 83°
2026-05-08 07:35 -5.99298 106.62619 9006 ft 289 kts 83°
2026-05-08 07:35 -5.99017 106.64619 9008 ft 289 kts 83°
2026-05-08 07:36 -5.98735 106.66622 9007 ft 289 kts 83°
2026-05-08 07:36 -5.98453 106.68623 9009 ft 290 kts 83°
2026-05-08 07:36 -5.98171 106.70623 8922 ft 289 kts 83°
2026-05-08 07:36 -5.97886 106.72634 8830 ft 288 kts 83°
2026-05-08 07:37 -5.97604 106.74623 9070 ft 282 kts 83°
2026-05-08 07:37 -5.97337 106.76506 10206 ft 266 kts 83°
2026-05-08 07:37 -5.97078 106.78339 10945 ft 264 kts 83°
2026-05-08 07:37 -5.96821 106.80171 11583 ft 266 kts 83°
2026-05-08 07:38 -5.96568 106.81997 12172 ft 270 kts 83°
2026-05-08 07:38 -5.96281 106.83932 12323 ft 292 kts 79°
2026-05-08 07:38 -5.95788 106.86006 12455 ft 314 kts 77°
2026-05-08 07:38 -5.95254 106.88199 12583 ft 335 kts 77°
2026-05-08 07:39 -5.94686 106.90545 12740 ft 353 kts 77°
2026-05-08 07:39 -5.94100 106.92961 13183 ft 360 kts 77°
2026-05-08 07:39 -5.93497 106.95420 13727 ft 364 kts 76°
2026-05-08 07:39 -5.92552 106.97783 14204 ft 369 kts 62°
2026-05-08 07:40 -5.91015 106.99886 14703 ft 375 kts 47°
2026-05-08 07:40 -5.88991 107.01545 15186 ft 380 kts 32°
2026-05-08 07:40 -5.86584 107.02671 15674 ft 385 kts 21°
2026-05-08 07:40 -5.84098 107.03586 16153 ft 388 kts 21°
2026-05-08 07:41 -5.81546 107.04530 16629 ft 391 kts 21°
2026-05-08 07:41 -5.78986 107.05480 16784 ft 392 kts 21°
2026-05-08 07:41 -5.76422 107.06434 16814 ft 392 kts 21°
2026-05-08 07:41 -5.73892 107.07375 17478 ft 379 kts 21°
2026-05-08 07:42 -5.71408 107.08340 17884 ft 388 kts 27°
2026-05-08 07:42 -5.69101 107.09721 18102 ft 395 kts 39°
2026-05-08 07:42 -5.67085 107.11605 18447 ft 398 kts 51°
2026-05-08 07:42 -5.65503 107.13877 18851 ft 398 kts 63°
2026-05-08 07:43 -5.64416 107.16437 19275 ft 399 kts 72°
2026-05-08 07:43 -5.63526 107.19084 19698 ft 401 kts 72°
2026-05-08 07:43 -5.62626 107.21753 20083 ft 404 kts 72°
2026-05-08 07:43 -5.61724 107.24420 20410 ft 402 kts 72°
2026-05-08 07:44 -5.60824 107.27079 20909 ft 402 kts 72°
2026-05-08 07:44 -5.59923 107.29738 21483 ft 400 kts 71°
2026-05-08 07:44 -5.59045 107.32339 22069 ft 398 kts 71°
2026-05-08 07:44 -5.58147 107.34998 22681 ft 395 kts 71°
2026-05-08 07:45 -5.57275 107.37572 23287 ft 392 kts 71°
2026-05-08 07:45 -5.56401 107.40150 23810 ft 389 kts 71°
2026-05-08 07:45 -5.55530 107.42723 24338 ft 385 kts 71°
2026-05-08 07:45 -5.54674 107.45254 24868 ft 381 kts 71°
2026-05-08 07:46 -5.53829 107.47762 25400 ft 377 kts 71°
2026-05-08 07:46 -5.52991 107.50236 25956 ft 371 kts 71°
2026-05-08 07:46 -5.52160 107.52677 26474 ft 367 kts 71°
2026-05-08 07:46 -5.51346 107.55062 26942 ft 364 kts 71°
2026-05-08 07:47 -5.50529 107.57468 27401 ft 362 kts 71°
2026-05-08 07:47 -5.49723 107.59850 27869 ft 358 kts 71°
2026-05-08 07:47 -5.48924 107.62210 28343 ft 355 kts 71°
2026-05-08 07:47 -5.48132 107.64545 28794 ft 352 kts 71°
2026-05-08 07:48 -5.47346 107.66863 29161 ft 351 kts 71°
2026-05-08 07:48 -5.46554 107.69204 29400 ft 355 kts 71°
2026-05-08 07:48 -5.45757 107.71563 29530 ft 361 kts 71°
2026-05-08 07:48 -5.44947 107.73965 29671 ft 367 kts 71°
2026-05-08 07:49 -5.44126 107.76389 29805 ft 373 kts 71°
2026-05-08 07:49 -5.43393 107.78905 29930 ft 379 kts 78°
2026-05-08 07:49 -5.42981 107.81541 30046 ft 386 kts 84°
2026-05-08 07:49 -5.42704 107.84252 30174 ft 391 kts 84°
2026-05-08 07:50 -5.42416 107.86979 30406 ft 394 kts 84°
2026-05-08 07:50 -5.42121 107.89728 30634 ft 397 kts 84°
2026-05-08 07:50 -5.41823 107.92495 30862 ft 400 kts 83°
2026-05-08 07:50 -5.41522 107.95282 31095 ft 402 kts 83°
2026-05-08 07:51 -5.41219 107.98078 31353 ft 404 kts 83°
2026-05-08 07:51 -5.40915 108.00888 31633 ft 405 kts 83°
2026-05-08 07:51 -5.40617 108.03661 31914 ft 405 kts 83°
2026-05-08 07:51 -5.40315 108.06473 32199 ft 406 kts 83°
2026-05-08 07:52 -5.40015 108.09288 32492 ft 406 kts 83°
2026-05-08 07:52 -5.39712 108.12117 32748 ft 407 kts 83°
2026-05-08 07:52 -5.39408 108.14948 32813 ft 413 kts 83°
2026-05-08 07:53 -5.38779 108.20803 32820 ft 427 kts 83°
2026-05-08 07:53 -5.37720 108.26714 32817 ft 440 kts 75°
2026-05-08 07:54 -5.36184 108.32772 32817 ft 451 kts 75°
2026-05-08 07:54 -5.34632 108.38887 32818 ft 453 kts 75°
2026-05-08 07:55 -5.33077 108.45000 32817 ft 453 kts 75°
2026-05-08 07:55 -5.31512 108.51147 32817 ft 453 kts 75°
2026-05-08 07:56 -5.29958 108.57246 32814 ft 453 kts 75°
2026-05-08 07:56 -5.28394 108.63384 32818 ft 453 kts 75°
2026-05-08 07:57 -5.26849 108.69479 32823 ft 452 kts 75°
2026-05-08 07:57 -5.25294 108.75609 32821 ft 452 kts 75°
2026-05-08 07:58 -5.23742 108.81693 32821 ft 451 kts 75°
2026-05-08 07:58 -5.22183 108.87805 32823 ft 451 kts 75°
2026-05-08 07:59 -5.20624 108.93882 32822 ft 451 kts 75°
2026-05-08 07:59 -5.19070 108.99956 32822 ft 451 kts 75°
2026-05-08 08:00 -5.17517 109.06043 32820 ft 451 kts 76°
2026-05-08 08:00 -5.15962 109.12153 32820 ft 451 kts 76°
2026-05-08 08:01 -5.14408 109.18238 32816 ft 451 kts 76°
2026-05-08 08:01 -5.12849 109.24365 32819 ft 452 kts 76°
2026-05-08 08:02 -5.11281 109.30474 32826 ft 452 kts 75°
2026-05-08 08:02 -5.09715 109.36563 32825 ft 451 kts 76°
2026-05-08 08:03 -5.08166 109.42630 32822 ft 451 kts 76°
2026-05-08 08:03 -5.06603 109.48747 32823 ft 451 kts 76°
2026-05-08 08:04 -5.05039 109.54841 32815 ft 450 kts 76°
2026-05-08 08:04 -5.03485 109.60896 32812 ft 450 kts 76°
2026-05-08 08:05 -5.01934 109.66958 32815 ft 450 kts 76°
2026-05-08 08:05 -5.00374 109.73050 32814 ft 450 kts 76°
2026-05-08 08:06 -4.98812 109.79128 32814 ft 450 kts 76°
2026-05-08 08:06 -4.97257 109.85173 32813 ft 450 kts 76°
2026-05-08 08:07 -4.95694 109.91265 32814 ft 450 kts 76°
2026-05-08 08:07 -4.94143 109.97303 32814 ft 449 kts 76°
2026-05-08 08:08 -4.92583 110.03373 32814 ft 449 kts 76°
2026-05-08 08:08 -4.91023 110.09433 32809 ft 449 kts 75°
2026-05-08 08:09 -4.90063 110.13150 32814 ft 449 kts 76°
2026-05-08 08:09 -4.88505 110.19207 32812 ft 449 kts 76°
2026-05-08 08:10 -4.85516 110.30818 32813 ft 449 kts 76°
2026-05-08 08:11 -4.83965 110.36868 32815 ft 449 kts 76°
2026-05-08 08:11 -4.82406 110.42943 32815 ft 449 kts 76°
2026-05-08 08:12 -4.80839 110.49024 32821 ft 450 kts 76°
2026-05-08 08:12 -4.79280 110.55069 32824 ft 450 kts 76°
2026-05-08 08:13 -4.77713 110.61155 32830 ft 450 kts 76°
2026-05-08 08:13 -4.76135 110.67239 32833 ft 450 kts 76°
2026-05-08 08:14 -4.74567 110.73292 32833 ft 450 kts 76°
2026-05-08 08:14 -4.73001 110.79360 32828 ft 450 kts 76°
2026-05-08 08:15 -4.71425 110.85453 32828 ft 450 kts 76°
2026-05-08 08:15 -4.69872 110.91495 32823 ft 450 kts 76°
2026-05-08 08:16 -4.68295 110.97576 32819 ft 450 kts 76°
2026-05-08 08:16 -4.66719 111.03662 32819 ft 450 kts 76°
2026-05-08 08:17 -4.65157 111.09705 32818 ft 450 kts 76°
2026-05-08 08:17 -4.63583 111.15790 32818 ft 450 kts 76°
2026-05-08 08:18 -4.62013 111.21871 32815 ft 450 kts 76°
2026-05-08 08:18 -4.60231 111.27890 32813 ft 450 kts 72°
2026-05-08 08:19 -4.58141 111.33814 32806 ft 450 kts 70°
2026-05-08 08:19 -4.56020 111.39726 32808 ft 451 kts 71°
2026-05-08 08:20 -4.53971 111.45670 32808 ft 451 kts 71°
2026-05-08 08:20 -4.51982 111.51598 32811 ft 451 kts 72°
2026-05-08 08:21 -4.49968 111.57584 32815 ft 452 kts 71°
2026-05-08 08:21 -4.47943 111.63550 32817 ft 451 kts 71°
2026-05-08 08:22 -4.45924 111.69474 32811 ft 451 kts 71°
2026-05-08 08:22 -4.43894 111.75442 32808 ft 451 kts 71°
2026-05-08 08:23 -4.41870 111.81396 32808 ft 451 kts 71°
2026-05-08 08:23 -4.39852 111.87309 32809 ft 451 kts 71°
2026-05-08 08:24 -4.37829 111.93266 32811 ft 451 kts 71°
2026-05-08 08:24 -4.35798 111.99228 32805 ft 452 kts 71°
2026-05-08 08:25 -4.33762 112.05190 32810 ft 452 kts 71°
2026-05-08 08:25 -4.31723 112.11153 32812 ft 452 kts 71°
2026-05-08 08:26 -4.29712 112.17079 32814 ft 452 kts 71°
2026-05-08 08:26 -4.27680 112.23061 32816 ft 452 kts 71°
2026-05-08 08:27 -4.25645 112.29015 32815 ft 452 kts 71°
2026-05-08 08:27 -4.23614 112.34963 32814 ft 452 kts 71°
2026-05-08 08:28 -4.21570 112.40930 32819 ft 453 kts 71°
2026-05-08 08:28 -4.19531 112.46911 32819 ft 453 kts 71°
2026-05-08 08:29 -4.17508 112.52851 32820 ft 453 kts 71°
2026-05-08 08:29 -4.15479 112.58834 32823 ft 453 kts 71°
2026-05-08 08:30 -4.13450 112.64805 32820 ft 453 kts 71°
2026-05-08 08:30 -4.10402 112.73770 32818 ft 453 kts 71°
2026-05-08 08:31 -4.08374 112.79753 32817 ft 453 kts 71°
2026-05-08 08:31 -4.06357 112.85694 32819 ft 453 kts 71°
2026-05-08 08:32 -4.04324 112.91674 32818 ft 454 kts 71°
2026-05-08 08:32 -4.02281 112.97673 32490 ft 456 kts 71°
2026-05-08 08:33 -4.01262 113.00669 32138 ft 454 kts 72°
2026-05-08 08:33 -4.00243 113.03668 31897 ft 455 kts 71°
2026-05-08 08:33 -3.99217 113.06673 31653 ft 454 kts 71°
2026-05-08 08:33 -3.98190 113.09676 31414 ft 453 kts 71°
2026-05-08 08:34 -3.97107 113.12593 31173 ft 452 kts 65°
2026-05-08 08:34 -3.95595 113.15341 30952 ft 451 kts 56°
2026-05-08 08:34 -3.93680 113.17844 30713 ft 451 kts 51°
2026-05-08 08:34 -3.91716 113.20264 30201 ft 446 kts 52°
2026-05-08 08:35 -3.89772 113.22670 29691 ft 441 kts 52°
2026-05-08 08:35 -3.87843 113.25055 29115 ft 437 kts 52°
2026-05-08 08:35 -3.85958 113.27387 28556 ft 433 kts 52°
2026-05-08 08:35 -3.84064 113.29732 28009 ft 430 kts 52°
2026-05-08 08:36 -3.82823 113.31270 27648 ft 427 kts 52°
2026-05-08 08:36 -3.80962 113.33571 27115 ft 424 kts 52°
2026-05-08 08:36 -3.79109 113.35860 26600 ft 420 kts 51°
2026-05-08 08:36 -3.77273 113.38126 26095 ft 417 kts 51°
2026-05-08 08:37 -3.75448 113.40379 25608 ft 414 kts 51°
2026-05-08 08:37 -3.73644 113.42604 25101 ft 411 kts 51°
2026-05-08 08:37 -3.71866 113.44799 24661 ft 408 kts 51°
2026-05-08 08:37 -3.70083 113.46998 24201 ft 405 kts 51°
2026-05-08 08:38 -3.68309 113.49188 23758 ft 402 kts 51°
2026-05-08 08:38 -3.66557 113.51351 23324 ft 399 kts 51°
2026-05-08 08:38 -3.64813 113.53506 22814 ft 396 kts 51°
2026-05-08 08:38 -3.63087 113.55642 22328 ft 393 kts 52°
2026-05-08 08:39 -3.61371 113.57767 21861 ft 390 kts 52°
2026-05-08 08:39 -3.59665 113.59877 21403 ft 388 kts 52°
2026-05-08 08:39 -3.57974 113.61962 20881 ft 383 kts 52°
2026-05-08 08:39 -3.56301 113.64022 20290 ft 380 kts 52°
2026-05-08 08:40 -3.54633 113.66074 19719 ft 377 kts 52°
2026-05-08 08:40 -3.52987 113.68097 19161 ft 374 kts 52°
2026-05-08 08:40 -3.51349 113.70114 18652 ft 371 kts 52°
2026-05-08 08:40 -3.49742 113.72096 18149 ft 368 kts 52°
2026-05-08 08:41 -3.48185 113.74105 17589 ft 365 kts 58°
2026-05-08 08:41 -3.47022 113.76339 17041 ft 360 kts 70°
2026-05-08 08:41 -3.46353 113.78735 16503 ft 355 kts 82°
2026-05-08 08:41 -3.46106 113.81187 15966 ft 352 kts 86°
2026-05-08 08:42 -3.45907 113.83631 15445 ft 350 kts 86°
2026-05-08 08:42 -3.45705 113.86018 14982 ft 347 kts 86°
2026-05-08 08:42 -3.45497 113.88422 14526 ft 344 kts 86°
2026-05-08 08:42 -3.45292 113.90803 14075 ft 342 kts 86°
2026-05-08 08:43 -3.45091 113.93171 13631 ft 339 kts 86°
2026-05-08 08:43 -3.44895 113.95507 13125 ft 337 kts 86°
2026-05-08 08:43 -3.44701 113.97835 12629 ft 334 kts 86°
2026-05-08 08:43 -3.44508 114.00144 12125 ft 331 kts 86°
2026-05-08 08:44 -3.44316 114.02437 11681 ft 329 kts 86°
2026-05-08 08:44 -3.44126 114.04710 11233 ft 327 kts 86°
2026-05-08 08:44 -3.43936 114.06965 10785 ft 325 kts 85°
2026-05-08 08:44 -3.43749 114.09184 10356 ft 322 kts 85°
2026-05-08 08:45 -3.43564 114.11412 9944 ft 319 kts 85°
2026-05-08 08:45 -3.43384 114.13584 9821 ft 307 kts 85°
2026-05-08 08:45 -3.43210 114.15669 9705 ft 295 kts 85°
2026-05-08 08:45 -3.43041 114.17686 9462 ft 288 kts 85°
2026-05-08 08:46 -3.42873 114.19678 9123 ft 285 kts 85°
2026-05-08 08:46 -3.42709 114.21633 8749 ft 283 kts 85°
2026-05-08 08:46 -3.42543 114.23596 8382 ft 282 kts 85°
2026-05-08 08:46 -3.42381 114.25543 8009 ft 280 kts 85°
2026-05-08 08:47 -3.42219 114.27486 7633 ft 278 kts 85°
2026-05-08 08:47 -3.42059 114.29406 7255 ft 276 kts 85°
2026-05-08 08:47 -3.41899 114.31320 6888 ft 275 kts 85°
2026-05-08 08:47 -3.41743 114.33196 6521 ft 273 kts 85°
2026-05-08 08:48 -3.41585 114.35093 6160 ft 272 kts 85°
2026-05-08 08:48 -3.41428 114.36970 5790 ft 270 kts 85°
2026-05-08 08:48 -3.41272 114.38839 5402 ft 268 kts 85°
2026-05-08 08:48 -3.41116 114.40696 5034 ft 266 kts 85°
2026-05-08 08:49 -3.40961 114.42539 4660 ft 264 kts 85°
2026-05-08 08:49 -3.40808 114.44367 4270 ft 262 kts 85°
2026-05-08 08:49 -3.40657 114.46182 3870 ft 261 kts 85°
2026-05-08 08:49 -3.40508 114.47956 3707 ft 250 kts 85°
2026-05-08 08:50 -3.40367 114.49647 3574 ft 237 kts 85°
2026-05-08 08:50 -3.40233 114.51255 3438 ft 225 kts 85°
2026-05-08 08:50 -3.40137 114.52801 3089 ft 221 kts 91°
2026-05-08 08:50 -3.40273 114.54295 2876 ft 214 kts 97°
2026-05-08 08:51 -3.40514 114.55734 2755 ft 206 kts 99°
2026-05-08 08:51 -3.40762 114.57110 2673 ft 194 kts 100°
2026-05-08 08:51 -3.40997 114.58407 2531 ft 185 kts 100°
2026-05-08 08:51 -3.41217 114.59627 2400 ft 170 kts 100°
2026-05-08 08:52 -3.41418 114.60744 2267 ft 155 kts 100°
2026-05-08 08:52 -3.41602 114.61761 2119 ft 142 kts 100°
2026-05-08 08:52 -3.41776 114.62725 2049 ft 141 kts 100°
2026-05-08 08:52 -3.41949 114.63684 2010 ft 139 kts 101°
2026-05-08 08:53 -3.42121 114.64639 1964 ft 139 kts 101°
2026-05-08 08:53 -3.42293 114.65593 1847 ft 138 kts 101°
2026-05-08 08:53 -3.42464 114.66542 1687 ft 138 kts 101°
2026-05-08 08:53 -3.42635 114.67488 1522 ft 138 kts 102°
2026-05-08 08:54 -3.42804 114.68428 1336 ft 137 kts 101°
2026-05-08 08:54 -3.42937 114.69163 1211 ft 138 kts 102°
2026-05-08 08:54 -3.43112 114.70133 1028 ft 138 kts 102°
2026-05-08 08:54 -3.43283 114.71080 866 ft 138 kts 102°
2026-05-08 08:55 -3.43453 114.72023 713 ft 137 kts 101°
2026-05-08 08:55 -3.43621 114.72960 547 ft 136 kts 103°
2026-05-08 08:55 -3.43789 114.73887 369 ft 135 kts 102°
2026-05-08 08:55 -3.43958 114.74811 182 ft 136 kts 102°
2026-05-08 08:56 -3.44140 114.75718 88 ft 123 kts 104°
2026-05-08 08:56 -3.44249 114.76358 73 ft 52 kts 100°
2026-05-08 08:56 -3.44293 114.76590 72 ft 30 kts 102°
2026-05-08 08:56 -3.44329 114.76785 76 ft 26 kts 99°
2026-05-08 08:57 -3.44363 114.76959 73 ft 25 kts 101°
2026-05-08 08:57 -3.44399 114.77120 70 ft 21 kts 104°
2026-05-08 08:57 -3.44416 114.77262 75 ft 19 kts 94°
2026-05-08 08:57 -3.44411 114.77344 75 ft 9 kts 99°
2026-05-08 08:58 -3.44435 114.77342 70 ft 3 kts 296°
2026-05-08 08:58 -3.44429 114.77328 66 ft 1 kts 294°
2026-05-08 08:58 -3.44428 114.77323 68 ft 0 kts 284°
2026-05-08 08:58 -3.44426 114.77313 66 ft 5 kts 283°
2026-05-08 08:59 -3.44411 114.77244 72 ft 15 kts 281°
2026-05-08 08:59 -3.44390 114.77114 71 ft 21 kts 280°
2026-05-08 08:59 -3.44365 114.76972 75 ft 21 kts 280°
2026-05-08 08:59 -3.44331 114.76790 76 ft 30 kts 280°
2026-05-08 09:00 -3.44291 114.76577 72 ft 32 kts 280°
2026-05-08 09:00 -3.44250 114.76356 74 ft 33 kts 280°
2026-05-08 09:00 -3.44210 114.76128 76 ft 34 kts 280°
2026-05-08 09:00 -3.44183 114.75994 74 ft 10 kts 281°
2026-05-08 09:01 -3.44153 114.75945 72 ft 8 kts 339°
2026-05-08 09:01 -3.44100 114.75950 70 ft 7 kts 13°
2026-05-08 09:01 -3.44052 114.75959 73 ft 7 kts 10°
2026-05-08 09:01 -3.44008 114.75967 67 ft 6 kts 10°
2026-05-08 09:02 -3.43968 114.75974 71 ft 7 kts 11°
2026-05-08 09:02 -3.43928 114.75972 75 ft 4 kts 330°
2026-05-08 09:02 -3.43918 114.75955 72 ft 2 kts 282°
2026-05-08 09:02 -3.43911 114.75921 75 ft 10 kts 282°
2026-05-08 09:03 -3.43900 114.75859 75 ft 8 kts 279°
2026-05-08 09:03 -3.43882 114.75840 70 ft 3 kts 359°
2026-05-08 09:03 -3.43866 114.75841 75 ft 3 kts
2026-05-08 09:03 -3.43848 114.75844 66 ft 2 kts 10°
2026-05-08 09:04 -3.43831 114.75847 71 ft 4 kts 10°
2026-05-08 09:04 -3.43811 114.75851 75 ft 2 kts 10°
2026-05-08 09:04 -3.43808 114.75852 75 ft 0 kts 10°